Regional Weather Roundup
Issued by NWS

Home | Current Version | Previous Version | Text Only | Print | Product List | Glossary On
Versions: 1 2 3 4 5 6 7 8 9 10 11 12 13 14 15 16 17 18 19 20 21 22 23 24 25 26 27 28 29 30 31 32 33 34 35 36 37 38 39 40 41 42 43 44 45 46 47 48 49 50
368
ASUS43 KBIS 082210
RWRND

NORTH DAKOTA REGIONAL WEATHER ROUNDUP
NATIONAL WEATHER SERVICE BISMARCK ND
400 PM CST MON FEB 08 2016

NOTE: "FAIR" INDICATES FEW OR NO CLOUDS BELOW 12,000 FEET WITH NO
SIGNIFICANT WEATHER AND/OR OBSTRUCTIONS TO VISIBILITY.


NDZ001>003-009>011-017-082300-
NORTHWEST NORTH DAKOTA

CITY           SKY/WX    TMP DP  RH WIND       PRES   REMARKS
WILLISTON      CLOUDY    35  18  49 NW12      30.29F
MINOT          CLOUDY    32  10  40 NW21      30.24S WCI  20
MINOT AFB      CLOUDY    30  11  45 N17G26    30.24S WCI  18
$$

NDZ018>021-031>035-040>046-082300-
SOUTHWEST NORTH DAKOTA

CITY           SKY/WX    TMP DP  RH WIND       PRES   REMARKS
BISMARCK       CLOUDY    37  18  46 NW23G30   30.23F
DICKINSON      CLOUDY    33  12  41 NW23G29   30.23F
GARRISON         N/A     32  17  54 NW20      30.23F
HETTINGER ARPT CLOUDY    37   9  31 N22       30.25S
$$

NDZ004>008-012>016-024-026-027-054-082300-
NORTHEAST NORTH DAKOTA

CITY           SKY/WX    TMP DP  RH WIND       PRES   REMARKS
GRAND FORKS    BLWGSNOW  14   6  70 N28G40    30.21F VSB 1   WCI  -6
GRND FRKS AFB  CLOUDY    12   7  79 N18G29    30.21S WCI  -5
DEVILS LAKE    CLOUDY    19  12  74 N22       30.21R WCI   2
$$

NDZ022-023-025-028>030-036>039-047>053-082300-
SOUTHEAST NORTH DAKOTA

CITY           SKY/WX    TMP DP  RH WIND       PRES   REMARKS
FARGO          MIX PCPN  14   5  67 N28       30.19S WCI  -6
JAMESTOWN      SUNNY     25  12  58 N26G36    30.16F WCI   9
$$





USA.gov is the U.S. government's official web portal to all federal, state and local government web resources and services.